Location: Brachstadt
(48.6975°N, 10.6755°E)
Time: 08:43:08
(UTC+00:00)

COSMOS 2406 - Pass Details

Date: 18 September 2020
Orbit: 844 x 863 km, 71.0° (Epoch: 24 October)

Event Time Altitude Azimuth Distance (km) Brightness Sun altitude
Rises 19:02:51 0° 335° (NNW) 3,415 7.1 -16.8°
Reaches altitude 10° 19:05:41 10° 348° (NNW) 2,476 6.1 -17.3°
Maximum altitude 19:10:29 27° 46° (NE) 1,562 4.4 -18.0°
Enters shadow 19:12:17 23° 75° (ENE) 1,720 4.4 -18.3°
